Velovelo
Português Nederlands 日本語 中文
Español English čeština slovenčina
русский italiano polski norsk
français Deutsch svenska عربي
 
 vorige Seite
 einem Freund senden
 Um zu drucken
 ---> La Blé d’Or 2015 : résultats du 155 km

Clas...Dos....Nom PrénomC.c.....Temps…....Moy…..
1 293 VERSTRAETEN Jar 1° A 04:12:48 36,79
2 4 LAIDOUN Julien 1° B 04:12:54 36,77
3 60 BOURBON Kevin 2° A 04:12:57 36,77
4 128 RIGOULAY Johann 1° Z 04:12:59 36,76
5 224 BOUTTIER Benjamin 3° A 04:13:00 36,76
6 62 HOLLEBEKE Emmanuel 4° A 04:13:09 36,74
7 295 MINNAERT Michiel 5° A 04:16:46 36,22
8 181 CAVET Tony 1° C 04:16:53 36,2
9 189 DROUET Freddy 2° B 04:16:55 36,2
10 69 PICHOT Laurent 3° B 04:16:59 36,19
11 218 MULOT Julien 6° A 04:17:04 36,18
12 265 LE MEUR Pascal 1° D 04:19:41 35,81
13 233 VALOMET Pierrick 7° A 04:23:23 35,31
14 283 LOUIS Clement 2° Z 04:23:25 35,31
15 56 BOURDIN Eric 2° C 04:23:27 35,3
16 45 GAUDENECHE Cedric 4° B 04:23:28 35,3
17 54 GANNE Denis 2° D 04:23:35 35,28
18 294 BOLLE Jean Pascal 5° B 04:23:38 35,28
19 10 CHARLIER Benoit 3° C 04:23:40 35,27
20 222 CULLET Thierry 8° A 04:23:44 35,26
21 216 BECQUERELLE Maxime 6° B 04:23:49 35,25
22 57 PINARD Guillaume 7° B 04:23:54 35,24
23 25 CALVARIN Philippe 3° D 04:23:55 35,24
24 119 NEGARET Nicolas 9° A 04:23:56 35,24
25 196 HANSSENS Christophe 4° C 04:23:56 35,24
26 235 JUNCHAT Mickael 5° C 04:24:11 35,2
27 70 PICHOT Geoffrey 10° A 04:24:53 35,11
28 281 MELIAND Jonathan 11° A 04:25:24 35,04
29 229 CORRADINI Sylvain 12° A 04:28:31 34,63
30 183 DHAUSSY Frederic 4° D 04:29:00 34,57
31 249 BENOIST Valentin 13° A 04:29:03 34,57
32 217 MONNERIE Jean Baptiste 5° D 04:29:06 34,56
33 263 BROSSE Christophe 6° C 04:29:06 34,56
34 236 GRANGER Yvon 7° C 04:29:08 34,56
35 303 BOUCHERET Eric 6° D 04:29:11 34,55
36 226 RAPPELET Stephane 8° B 04:29:14 34,54
37 322 LECOEUR Cedric 8° C 04:29:16 34,54
38 301 AVICE Franck 9° C 04:29:17 34,54
39 321 CODDUNBAU Ludwig 9° B 04:29:19 34,53
40 139 GOUTAUDIER Fabrice 10° B 04:29:25 34,52
41 59 DELARACE Philippe 7° D 04:29:40 34,49
42 53 DESTOUCHES Cedric 11° B 04:30:04 34,44
43 326 KNOKE Nokolai 12° B 04:31:24 34,27
44 260 BOITREL Alex 10° C 04:35:41 33,73
45 55 SICOT Christophe 11° C 04:38:24 33,41
46 268 JARRY Christophe 12° C 04:38:25 33,4
47 298 BRULANT Steve 13° B 04:38:27 33,4
48 38 LEQUEUX Mickael 13° C 04:38:27 33,4
49 16 LASSARA Alain 1° F 04:38:27 33,4
50 254 LAURIERE Julien 14° B 04:38:30 33,39
51 140 ROULOT Glenn 14° C 04:38:31 33,39
52 252 JARRY Philippe 8° D 04:38:31 33,39
53 220 DUBOIS Damien 14° A 04:38:32 33,39
54 51 NAVEAU Jean Yves 9° D 04:38:32 33,39
55 193 GADOU Gregory 15° B 04:38:32 33,39
56 103 HAGUENIER Fabrice 10° D 04:38:33 33,39
57 261 LEBRAT David 16° B 04:38:33 33,39
58 152 ROY Jean Philippe 15° C 04:38:33 33,39
59 121 GRAMMAIRE Benoit 16° C 04:38:33 33,39
60 317 SCOUARNEC Philippe 11° D 04:38:34 33,39
61 202 GUILLOUZO Christophe 17° C 04:38:34 33,39
62 253 LAFORET Jacques 18° C 04:38:34 33,39
63 9 VALLADE Eric 12° D 04:38:35 33,38
64 49 BOUDRAS Michel 19° C 04:38:36 33,38
65 107 DAVID Laurent 20° C 04:38:36 33,38
66 269 FERRE Damien 17° B 04:38:37 33,38
67 182 DEWAELLE Wilfried 21° C 04:38:38 33,38
68 125 PENNEC Yann 13° D 04:38:38 33,38
69 41 LEMALE Eric 1° E 04:38:42 33,37
70 257 MULS Guillaume 14° D 04:38:43 33,37
71 7 SQUEREN Mikael 22° C 04:38:44 33,37
72 134 GRZEGORZEK Henri 2° E 04:38:44 33,37
73 188 DAVID Jacques 23° C 04:38:45 33,36
74 310 DELBOS Laurent 24° C 04:38:46 33,36
75 11 DUJACQUIER Nicolas 18° B 04:38:47 33,36
76 278 LEMAIRE Sebastien 19° B 04:38:48 33,36
77 166 THEBAULT Franck 25° C 04:38:49 33,36
78 248 BENOIST Pascal 15° D 04:38:50 33,35
79 114 MASSET Max 16° D 04:38:50 33,35
80 221 TOUZARD Sebastien 26° C 04:38:56 33,34
81 266 PAPILLON Alban 27° C 04:38:57 33,34
82 325 NOURRY Christophe 28° C 04:39:03 33,33
83 234 THIBAULT Guillaume 20° B 04:39:19 33,3
84 273 PENIFAURE Chris 21° B 04:39:23 33,29
85 247 FATIN Patrick 29° C 04:39:24 33,29
86 232 GAYARD Loic 22° B 04:39:33 33,27
87 223 CULLET Alain 17° D 04:39:38 33,26
88 74 WAGENER Maxime 15° A 04:40:19 33,18
89 267 MONNERIE Mickael 30° C 04:40:39 33,14
90 290 LECUAY Xavier 31° C 04:41:03 33,09
91 68 RIGAUT Valentin 3° Z 04:41:24 33,05
92 132 SAVOIE Patrick 3° E 04:48:06 32,28
93 6 PATUEL Ian 18° D 04:48:14 32,27
94 280 DEBARGE Sebastien 23° B 04:48:19 32,26
95 198 MOURET Arnaud 24° B 04:48:25 32,25
96 31 WANTZ Jean Charles 2° F 04:48:27 32,24
97 264 CHARPENTIER Philippe 32° C 04:48:34 32,23
98 20 RIPOLL Emmanuel 33° C 04:48:36 32,22
99 143 DUHAMEL Michael 34° C 04:48:37 32,22
100 124 LAMBERT Vincent 19° D 04:48:38 32,22
101 153 CHEVROT Regis 25° B 04:48:38 32,22
102 138 VITRAC Jerome 35° C 04:48:39 32,22
103 309 BOURREAU Pascal 20° D 04:48:39 32,22
104 201 DELAFOSSE Christophe 36° C 04:48:40 32,22
105 186 DAURIANNES Richard 21° D 04:48:53 32,19
106 150 TRANCHAND Olivier 37° C 04:48:55 32,19
107 73 DIEPVINTS Yves 38° C 04:48:57 32,19
108 315 GUILLERAULT Pascal 4° E 04:52:44 31,77
109 230 CORRADINI Eric 22° D 04:52:48 31,76
110 127 LEFEBVRE Noel 3° F 04:52:51 31,76
111 185 BOUCHERIE Vincent 26° B 04:52:54 31,75
112 214 SIMON Romain 16° A 04:52:54 31,75
113 334 COUET Fabrice 23° D 04:52:56 31,75
114 204 QUEMY Frederic 24° D 04:52:57 31,75
115 259 LEVASSEUR Dominique 25° D 04:52:58 31,74
116 52 SAVOURE Andre 4° F 04:52:58 31,74
117 282 VILHES Franck 39° C 04:52:59 31,74
118 324 LE DREAN Thierry 26° D 04:52:59 31,74
119 250 LAONET Rene 40° C 04:52:59 31,74
120 239 DELANDE Xavier 41° C 04:53:00 31,74
121 292 GOSNET Jerome 42° C 04:53:01 31,74
122 26 LAURENT Herve 43° C 04:53:04 31,73
123 145 BIZIERES Michel 5° F 04:53:04 31,73
124 29 TROHAI Stephane 44° C 04:53:05 31,73
125 61 HAMON Laurent 45° C 04:53:06 31,73
126 238 AGUERRE Mathieu 46° C 04:53:06 31,73
127 215 LOUVEAU Bernard 5° E 04:53:08 31,73
128 275 RITOURET Frederic 47° C 04:53:08 31,73
129 109 DORNIER Claude 6° E 04:53:11 31,72
130 44 METAIS Philippe 27° D 04:53:13 31,72
131 184 PETOT Florian 27° B 04:53:13 31,72
132 167 POINTEL Daniel 28° D 04:53:14 31,72
133 329 LHUILLIER Geoffrey 28° B 04:53:16 31,71
134 251 LAONET Patrick 29° D 04:53:19 31,71
135 164 PICOT Patrice 48° C 04:53:22 31,7
136 296 BOURDET Julien 49° C 04:53:24 31,7
137 227 ONFRAY Patrice 30° D 04:53:24 31,7
138 118 BINOVSKI Christophe 50° C 04:53:25 31,7
139 327 BESSEREY Sebastien 29° B 04:53:28 31,69
140 13 ANDRIEU Wilfried 51° C 04:53:44 31,66
141 148 MARCHAL Eric 31° D 04:53:55 31,64
142 24 TASD HOMME Jean Louis 32° D 04:54:55 31,53
143 312 LEGRILLE Yann 30° B 05:00:06 30,99
144 305 OBIOL José 6° F 05:00:14 30,98
145 155 FLEURY Patrice 52° C 05:00:21 30,96
146 304 VAUVELLE Thierry 53° C 05:00:21 30,96
147 256 PINCHON Dominique 54° C 05:00:26 30,96
148 22 PREVOST Herve 55° C 05:00:30 30,95
149 104 TERRADE Jean Daniel 33° D 05:00:30 30,95
150 137 NUSSWITZ Julien 31° B 05:00:31 30,95
151 165 PREVOT Greg 32° B 05:00:58 30,9
152 274 BEAUMAIS Matthieu 17° A 05:01:27 30,85
153 75 DELBART Jordan 18° A 05:01:27 30,85
154 194 RHARBI Badr 33° B 05:02:47 30,72
155 58 GARNIER Dominique 7° E 05:02:50 30,71
156 33 VIDALIE Michel 8° E 05:03:10 30,68
157 207 CHOUPAULT David 56° C 05:03:17 30,66
158 2 CARCERONI GILLES Claudia 1° W3 05:03:39 30,63
159 71 BAILLY Alain 57° C 05:03:40 30,63
160 318 HOURT Paul 34° D 05:03:47 30,61
161 190 LOUVEL Gilles 9° E 05:03:48 30,61
162 179 BOLL Francois 34° B 05:05:11 30,47
163 333 MICHELOT Vincent 35° B 05:05:59 30,39
164 47 LACOCHE Gerard 10° E 05:06:12 30,37
165 297 LETAILLEUR Yves 35° D 05:06:15 30,37
166 36 BENECHIE Laurent 58° C 05:06:20 30,36
167 271 GENNETAIS Jean Christophe 59° C 05:06:21 30,36
168 228 CHARPENTIER Hubert 60° C 05:06:29 30,34
169 149 LELANDAIS Guillaume 36° B 05:06:32 30,34
170 195 GIBERT Antoine 37° B 05:06:40 30,33
171 34 LAGRAVE Michel 36° D 05:06:44 30,32
172 308 ALLERON Claude 11° E 05:06:44 30,32
173 177 DERUMIGNY Frederic 61° C 05:06:45 30,32
174 237 CAROFF Frederic 62° C 05:06:54 30,3
175 126 CABARET Denis 37° D 05:08:20 30,16
176 206 CORTADA Ludovic 38° B 05:11:40 29,84
177 106 BOLTON Gawain 63° C 05:11:45 29,83
178 154 SERRANT Philippe 64° C 05:12:11 29,79
179 191 MALIBA Bruno 38° D 05:12:16 29,78
180 12 PERON Matthieu 65° C 05:12:19 29,78
181 105 ALLO Philippe 39° D 05:12:28 29,76
182 112 MARTIN Jean Claude 40° D 05:12:29 29,76
183 67 GATIGNOL Christelle 1° W2 05:12:32 29,76
184 28 GATINE Pascal 41° D 05:12:42 29,74
185 306 DEVILLERS Stéphane 66° C 05:12:45 29,74
186 23 PUECHBERTY Philippe 42° D 05:12:49 29,73
187 225 LELANDAIS Benoit 67° C 05:12:55 29,72
188 277 DUVAL Dominique 43° D 05:12:58 29,72
189 151 VERGNAUD Jean 44° D 05:13:10 29,7
190 32 LE SCIELLOUR Philippe 68° C 05:13:50 29,63
191 43 ALLIMONIER Serge 12° E 05:14:57 29,53
192 291 GUILLOU Alain 69° C 05:15:05 29,52
193 205 ANTHOINE Herve 70° C 05:15:22 29,49
194 40 LUCIA Pascal 45° D 05:15:26 29,48
195 110 JOUSSET Richard 13° E 05:15:26 29,48
196 133 THEVENART Jean Francois 7° F 05:15:29 29,48
197 117 PRIEUX Jean Marc 46° D 05:15:41 29,46
198 314 LECAILLON Bertrand 71° C 05:15:41 29,46
199 115 ANTOINE Gilles 47° D 05:15:51 29,44
200 146 GARNIER Daniel 8° F 05:15:57 29,44
201 200 MASSEAUX Rodolphe 48° D 05:16:03 29,43
202 299 GAMPELAERE Franck 72° C 05:16:58 29,34
203 244 COUPRIE Sebastien 39° B 05:19:04 29,15
204 246 CARANDANTE Frederic 49° D 05:19:34 29,1
205 1 GILLES Roland 14° E 05:21:59 28,88
206 323 ROBIN Joel 73° C 05:21:59 28,88
207 319 REMOND Christophe 50° D 05:22:24 28,85
208 120 GOUESBIER Henri 9° F 05:22:50 28,81
209 113 SALEMKOUR Souheil 74° C 05:22:56 28,8
210 285 CHARRAUD Jean Patrick 51° D 05:23:08 28,78
211 262 BENCOIL Jean Claude 52° D 05:23:19 28,76
212 242 LECOMTE Dominique 53° D 05:23:19 28,76
213 243 LE BOULBIN Yannick 75° C 05:23:24 28,76
214 30 BELLIN Laurent 54° D 05:23:37 28,74
215 116 CADRAN Lionel 76° C 05:23:46 28,72
216 27 LAMARRE Gerard 15° E 05:24:57 28,62
217 14 CLEMENCON Laurent 55° D 05:25:02 28,61
218 15 CROUZILLES Alain 56° D 05:25:06 28,61
219 284 HULOT Thierry 57° D 05:25:07 28,61
220 17 HERBOMEZ Didier 10° F 05:25:10 28,6
221 300 RICHER Daniel 77° C 05:25:14 28,59
222 209 ALLAIN Ludovic 40° B 05:25:59 28,53
223 208 FAUVEAU Jean Pierre 16° E 05:26:03 28,52
224 108 DENOYELLES Pascal 58° D 05:26:06 28,52
225 163 VAZ Victor Rafael 41° B 05:26:16 28,5
226 289 BECQUE Georges 78° C 05:26:35 28,48
227 316 CAUCHY Patrick 59° D 05:27:58 28,36
228 147 ROULLEAU Jean Claude 17° E 05:28:36 28,3
229 135 LAMOINE Lois 79° C 05:28:57 28,27
230 170 HELY Jean Michel 60° D 05:29:08 28,26
231 192 HEINRY Lionel 11° F 05:29:12 28,25
232 219 FAYE Jean Jacques 61° D 05:29:24 28,23
233 37 BORD Thierry 62° D 05:29:26 28,23
234 136 NEVE Sylvestre 80° C 05:29:29 28,23
235 111 LE BLED Pierre 81° C 05:29:30 28,22
236 63 MIGNOT Elodie 1° W1 05:29:33 28,22
237 241 GUILLOTEAU Jean Philippe 18° E 05:29:33 28,22
238 122 HERBO Jean Paul 19° E 05:29:36 28,22
239 199 ROUSSEAU Thierry 63° D 05:29:39 28,21
240 39 BOURGEOIS Rene Claude 64° D 05:29:51 28,19
241 142 KLIJNOOT Jean Pierre 82° C 05:32:55 27,93
242 307 DENIS Anthony 42° B 05:32:55 27,93
243 42 BERNHEIM Damien 83° C 05:32:58 27,93
244 270 KREMP Francois 65° D 05:33:38 27,87
245 288 PETIT Bruno 66° D 05:38:15 27,49
246 19 RONDET Philippe 67° D 05:40:35 27,31
247 157 SOMMEILLIER Geoffroy 43° B 05:40:49 27,29
248 255 DANGLETERRE Cyril 84° C 05:42:32 27,15
249 272 LANGEVIN Patrice 68° D 05:49:04 26,64
250 102 RANCON Manuel 44° B 05:50:20 26,55
251 141 HUET Patrick 12° F 05:53:16 26,33
252 130 GUENAIRE Christophe 85° C 05:54:12 26,26
253 320 GUILLOT Philippe 69° D 05:54:20 26,25
254 276 PALLIER Alain 70° D 05:54:24 26,24
255 21 MOURIN Camille 20° E 05:54:30 26,23
256 231 PITON Jean Louis 86° C 05:54:34 26,23
257 131 BOUTEILLER Yannic 71° D 05:54:43 26,22
258 240 LANTOS Fruzsina 45° B 05:54:53 26,21
259 328 AUDAT Julien 19° A 05:54:54 26,2
260 279 CHARRETON Pierre 13° F 05:55:26 26,17
261 331 LARGE Stéphane 87° C 05:55:43 26,14
262 330 VROLANT Nicolas 46° B 05:55:43 26,14
263 129 POIRIER Patrick 72° D 05:55:48 26,14
264 311 BRAKNI Eddy 88° C 05:58:18 25,96
265 161 BONNARD Philippe 21° E 05:58:44 25,92
266 211 LE COZANNET Goneri 47° B 05:59:04 25,9
267 178 BOUCHAN Pascal 73° D 05:59:09 25,89
268 156 GRIFFIT Felix 74° D 05:59:20 25,88
269 18 FRANCOIS Jean Claude 75° D 05:59:46 25,85
270 258 PERRIER Jean Philippe 89° C 05:59:52 25,84
271 35 FOUQUET Bruno 90° C 06:08:21 25,25
272 287 PORCHER Yves 14° F 06:08:35 25,23
273 159 DUJARDIN Bruno 91° C 06:08:51 25,21
274 213 GAUTIER Frederic 48° B 06:10:47 25,08
275 175 LESCUREUX Jean 15° F 06:11:10 25,06
276 172 DELORME Patrick 76° D 06:12:30 24,97
277 176 TABAREAU Marc 22° E 06:12:33 24,96
278 171 DEPARCY Thierry 77° D 06:12:33 24,96
279 101 VERMEULEN Christophe 78° D 06:12:37 24,96
280 180 WALLAERT Guillaume 79° D 06:12:39 24,96
281 173 HELY Jean Claude 23° E 06:12:39 24,96
282 123 GANEM Marc 24° E 06:12:44 24,95
283 100 GOUGEARD Philippe 80° D 06:15:03 24,8
284 210 CHOPART William 81° D 06:15:03 24,8
285 76 RICHARD Jean Paul 25° E 06:22:49 24,29
286 160 PERON Nicolas 92° C 06:25:27 24,13
287 162 BAL Emmanuel 93° C 06:25:27 24,13
288 203 DA CUNHA Nicolas 94° C 06:30:10 23,84
289 302 MCNAUGHTON Neil 16° F 06:36:10 23,47
290 212 LHOMMET Marc 49° B 06:37:22 23,4
291 286 DUPRE Julien 50° B 06:49:12 22,73
292 66 MOINE Perveen 2° W1 06:49:20 22,72
293 65 RAZAT Laure 3° W1 06:49:21 22,72
294 64 REYMOND Candice 4° W1 06:49:44 22,7
295 158 PILATE Joel 17° F 06:57:29 22,28

Haut 









Haut  
 Redaktion   Copyright Lesen: Hier klicken Um zu lesen !